Tracking 28920 objects as of 26-May-2024
HD Live streaming from Space Station
objects crossing your sky now

STARLINK-5352

Track STARLINK-5352 now!
10-day predictions
STARLINK-5352 is classified as:


NORAD ID: 56426
Int'l Code: 2023-061BE
Perigee: 565.3 km
Apogee: 567.2 km
Inclination: 43.0 °
Period: 95.8 minutes
Semi major axis: 6937 km
RCS: Unknown
Launch date: May 4, 2023
Source: United States (US)
Launch site: AIR FORCE EASTERN TEST RANGE (AFETR)
Your satellite tracking list
Your tracking list is empty




NASA's NSSDC Master Catalog

Two Line Element Set (TLE):
1 56426U 23061BE  24147.38373171  .00002819  00000-0  22362-3 0  9994
2 56426  43.0033 116.5182 0001366 267.7715  92.2971 15.02539871 58928
Source of the keplerian elements: AFSPC